Flag for Finland Weather past 2 weeks in Pori, Finland

Now
50 °F

Clear.


Feels Like: 48 °F
Forecast: 49 / 62 °F
Wind: 5 mph from South

Location: Pori Airport

Current Time: Sep 18, 2014 at 10:59:48 PM

Latest Report: Sep 18, 2014 at 10:20 PM


Visibility: 10 mi

Pressure: 30.21 "Hg

Humidity: 100%

Dew point: 50 °F

Location of PoriLocation

Historic Weather in Pori — Graph

°F

Pori temperature yesterday

Maximum temperature yesterday: 64 °F (at 2:20 PM)
Minimum temperature yesterday: 43 °F (at 4:20 AM)
Average temperature yesterday: 52 °F

Past Weeks' High & Low Weather Summary

 TemperatureHumidityPressure
High72 °F (Sep 8, 2:20 PM)100% (Sep 3, 9:50 PM)30.48 "Hg (Sep 3, 9:50 PM)
Low36 °F (Sep 14, 6:20 AM)40% (Sep 13, 5:20 PM)29.86 "Hg (Sep 9, 7:20 AM)
Average55 °F86%30.22 "Hg
* Reported Sep 3 9:20 PM — Sep 18 9:50 PM, Pori, Weather by CustomWeather, © 2014

Note: Actual official high and low records may vary slightly from our data, if they occured in-between our weather recording intervals... More about our weather records

Advertising

Pori weather history for previous 24 hours

 ConditionsComfort  
Time TempWeatherWind HumidityBarometerVisibility
9:50 PM
Sep 18
52 °FClear.5 mph100%30.21 "Hg10 mi
9:20 PM52 °FPassing clouds.3 mph94%30.21 "HgN/A
8:50 PM52 °FPassing clouds.3 mph100%30.21 "HgN/A
8:20 PM52 °FSunny.1 mph100%30.21 "Hg10 mi
7:50 PM55 °FSunny.2 mph88%30.21 "Hg10 mi
7:20 PM59 °FSunny.2 mph77%30.21 "Hg10 mi
6:50 PM61 °FPassing clouds.5 mph72%30.21 "HgN/A
6:20 PM63 °FPassing clouds.5 mph68%30.21 "HgN/A
5:50 PM63 °FSunny.7 mph68%30.21 "Hg10 mi
5:20 PM63 °FPassing clouds.6 mph68%30.24 "HgN/A
4:50 PM63 °FPassing clouds.6 mph68%30.24 "HgN/A
4:20 PM63 °FPassing clouds.7 mph73%30.24 "HgN/A
3:50 PM64 °FScattered clouds.7 mph64%30.24 "HgN/A
3:20 PM63 °FPassing clouds.9 mph68%30.24 "HgN/A
2:50 PM64 °FBroken clouds.7 mph64%30.24 "HgN/A
2:20 PM63 °FScattered clouds.6 mph68%30.24 "HgN/A
1:50 PM61 °FPartly sunny.7 mph72%30.27 "HgN/A
1:20 PM61 °FScattered clouds.6 mph72%30.27 "HgN/A
12:50 PM63 °FPartly sunny.6 mph77%30.27 "HgN/A
12:20 PM57 °FPartly sunny.8 mph94%30.27 "HgN/A
11:50 AM55 °FLow clouds.8 mph100%30.27 "Hg6 mi
11:20 AM54 °FFog.8 mph100%30.27 "Hg1 mi
10:50 AM52 °FFog.6 mph100%30.27 "Hg1 mi
10:20 AM50 °FFog.6 mph100%30.27 "Hg0 mi
9:50 AM48 °FFog.6 mph100%30.27 "Hg0 mi
9:20 AM46 °FFog.6 mph100%30.27 "Hg0 mi
8:50 AM45 °FFog.5 mph100%30.27 "Hg0 mi
8:20 AM45 °FFog.6 mph100%30.27 "Hg0 mi
7:50 AM45 °FFog.6 mph100%30.27 "Hg0 mi
7:20 AM43 °FFog.5 mph100%30.27 "Hg0 mi
6:50 AM43 °FFog.6 mph100%30.27 "Hg0 mi
6:20 AM43 °FFog.6 mph100%30.27 "Hg0 mi
5:50 AM43 °FFog.6 mph100%30.27 "Hg0 mi
5:20 AM43 °FFog.6 mph100%30.27 "Hg1 mi
4:50 AM45 °FFog.5 mph100%30.27 "Hg0 mi
4:20 AM45 °FFog.5 mph100%30.27 "Hg0 mi
3:50 AM45 °FFog.3 mph100%30.27 "Hg0 mi
3:20 AM45 °FFog.3 mph100%30.27 "Hg0 mi
2:50 AM45 °FDense fog.2 mph100%30.27 "Hg1 mi
2:20 AM46 °FFog.2 mph100%30.27 "Hg1 mi
1:50 AM45 °FPassing clouds.2 mph100%30.30 "HgN/A
1:20 AM45 °FPassing clouds.3 mph100%30.27 "HgN/A
12:50 AM46 °FFog.3 mph93%30.30 "Hg5 mi
12:20 AM46 °FFog.3 mph100%30.30 "Hg3 mi
11:50 PM
Sep 17
46 °FPassing clouds.3 mph100%30.30 "Hg6 mi
11:20 PM46 °FPassing clouds.2 mph100%30.30 "HgN/A
10:50 PM48 °FLight fog.1 mph100%30.30 "Hg4 mi
10:20 PM48 °FFog.5 mph100%30.30 "HgN/A
Weather by CustomWeather, © 2014

See weather overviewHow to use our weather pages